�N����,����,����,����,����,�C��,���x,�~����,�S�V����,�ő�u�ԕ���,,,
,,,,,,,,,����,����,����,�N��
yyyy/mm/dd,hh:mm:ss,-16,16����,m/s,��,%,mm,KW/�u,-16,16����,m/s,Time
2019/8/1,1:00:00,7,��쓌,0.6,23.1,96.4,0,0,12,��,2,41
2019/8/1,2:00:00,16,�É�,0.1,22.2,98.5,0,0,14,�k��,1,38
2019/8/1,3:00:00,13,���k��,0.6,22.1,99,0,0,12,��,2.9,36
2019/8/1,4:00:00,13,���k��,0.8,21.8,99.2,0,0,13,���k��,1.8,44
2019/8/1,5:00:00,13,���k��,1.3,22.3,99.2,0,0.02,12,��,3.1,31
2019/8/1,6:00:00,16,�É�,0.1,25,91.4,0,0.16,2,�k��,1.2,7
2019/8/1,7:00:00,10,�쐼,0.8,28.1,78.5,0,0.35,10,�쐼,1.4,55
2019/8/1,8:00:00,4,��,1.3,31,75.3,0,0.54,3,���k��,3.7,46
2019/8/1,9:00:00,5,���쓌,2.4,29.2,72.3,0,0.7,5,���쓌,4.3,19
2019/8/1,10:00:00,6,�쓌,2.2,30.4,69.6,0,0.84,8,��,3.9,59
2019/8/1,11:00:00,7,��쓌,1.2,33,61,0,0.94,11,���쐼,5,59
2019/8/1,12:00:00,12,��,4.5,32.9,61,0,0.98,10,�쐼,9.2,48
2019/8/1,13:00:00,11,���쐼,6.2,32.6,62.8,0,0.9,12,��,10.4,52
2019/8/1,14:00:00,11,���쐼,7.3,32.2,61.1,0,0.87,11,���쐼,10.8,18
2019/8/1,15:00:00,10,�쐼,5,31.1,63.7,0,0.67,11,���쐼,10.5,1
2019/8/1,16:00:00,10,�쐼,3.7,29.8,69.5,0,0.49,9,��쐼,7.6,2
2019/8/1,17:00:00,11,���쐼,4.3,29.5,69.2,0,0.36,11,���쐼,7.7,2
2019/8/1,18:00:00,11,���쐼,4.8,28.6,65.7,0,0.16,11,���쐼,8.5,48
2019/8/1,19:00:00,12,��,3.8,26.9,67.5,0,0.03,11,���쐼,6.9,3
2019/8/1,20:00:00,13,���k��,1.8,23.9,78.8,0,0,12,��,5.2,2
2019/8/1,21:00:00,13,���k��,3.4,23,82.3,0,0,12,��,5.1,46
2019/8/1,22:00:00,13,���k��,2,21.5,89.4,0,0,12,��,3.8,39
2019/8/1,23:00:00,2,�k��,1.8,22,92.5,0,0,4,��,5.1,14
2019/8/1,0:00:00,1,�k�k��,1.4,21.7,95.5,0,0,2,�k��,3.1,17
2019/8/2,1:00:00,13,���k��,0.9,18.7,98.6,0,0,1,�k�k��,2.3,18
2019/8/2,2:00:00,13,���k��,1,18.3,99.1,0,0,12,��,2.1,26
2019/8/2,3:00:00,13,���k��,1.6,18.2,99.6,0,0,12,��,2.5,51
2019/8/2,4:00:00,13,���k��,2,18.3,99.9,0,0,13,���k��,2.5,53
2019/8/2,5:00:00,12,��,1.9,19.2,99.9,0,0.02,13,���k��,2.8,17
2019/8/2,6:00:00,14,�k��,1.3,21.1,98.9,0,0.17,13,���k��,3.3,14
2019/8/2,7:00:00,12,��,1.1,24.4,84.9,0,0.36,14,�k��,2.9,13
2019/8/2,8:00:00,5,���쓌,1.3,26.7,80.8,0,0.55,5,���쓌,2.5,36
2019/8/2,9:00:00,5,���쓌,2.1,25.4,81.4,0,0.72,6,�쓌,3.8,32
2019/8/2,10:00:00,5,���쓌,2.1,26.4,77.1,0,0.86,4,��,2.9,59
2019/8/2,11:00:00,4,��,2,28.6,68.6,0,0.93,5,���쓌,3.2,59
2019/8/2,12:00:00,3,���k��,0.9,27.5,74.6,0,0.99,5,���쓌,3.4,31
2019/8/2,13:00:00,5,���쓌,1.3,29.3,69.8,0,0.97,4,��,2.3,32
2019/8/2,14:00:00,5,���쓌,0.6,28.8,70.3,0,0.87,5,���쓌,2.7,25
2019/8/2,15:00:00,5,���쓌,1.8,27.4,71.5,0,0.73,5,���쓌,3.2,32
2019/8/2,16:00:00,4,��,1.8,26.8,76.8,0,0.56,4,��,3.3,27
2019/8/2,17:00:00,4,��,1.7,26,78.8,0,0.38,3,���k��,2.5,19
2019/8/2,18:00:00,3,���k��,0.7,24.1,86.4,0,0.16,2,�k��,2.7,47
2019/8/2,19:00:00,16,�É�,0.1,21.2,94.2,0,0.02,3,���k��,1.6,16
2019/8/2,20:00:00,3,���k��,1.7,20.6,97.1,0,0,3,���k��,2.8,56
2019/8/2,21:00:00,5,���쓌,0.4,19.9,96.3,0,0,3,���k��,3.3,5
2019/8/2,22:00:00,12,��,1.2,19,98.8,0,0,12,��,2.1,51
2019/8/2,23:00:00,10,�쐼,0.8,18.3,97.6,0,0,11,���쐼,1.9,24
2019/8/2,0:00:00,12,��,1.1,18.1,98.9,0,0,13,���k��,1.8,50
2019/8/3,1:00:00,14,�k��,1.2,20.6,98.5,0,0,13,���k��,3.6,28
2019/8/3,2:00:00,13,���k��,0.6,19.6,96.4,0,0,12,��,2.5,16
2019/8/3,3:00:00,11,���쐼,1.1,18.4,97.8,0,0,11,���쐼,1.5,59
2019/8/3,4:00:00,11,���쐼,0.8,18,99.2,0,0,11,���쐼,1.8,3
2019/8/3,5:00:00,12,��,1.3,19,99.5,0,0.02,10,�쐼,2.3,8
2019/8/3,6:00:00,13,���k��,1.1,22.8,90.5,0,0.16,14,�k��,2.7,38
2019/8/3,7:00:00,13,���k��,2.5,26,80.8,0,0.32,12,��,3.4,53
2019/8/3,8:00:00,13,���k��,1.6,28.4,70,0,0.53,13,���k��,3,14
2019/8/3,9:00:00,14,�k��,1.3,29.8,66.5,0,0.7,15,�k�k��,3.2,49
2019/8/3,10:00:00,7,��쓌,1.4,31.6,60,0,0.8,7,��쓌,3.5,54
2019/8/3,11:00:00,8,��,2.3,31.2,54.4,0,0.95,6,�쓌,4.5,18
2019/8/3,12:00:00,8,��,2.2,30.3,60.9,0,1,8,��,5.1,17
2019/8/3,13:00:00,8,��,2.1,31.3,54.3,0,0.96,8,��,5.1,55
2019/8/3,14:00:00,7,��쓌,3.2,30.2,54.9,0,0.86,8,��,6.2,19
2019/8/3,15:00:00,9,��쐼,2.5,30.1,55.9,0,0.71,9,��쐼,4.5,3
2019/8/3,16:00:00,9,��쐼,1.6,30.1,54.3,0,0.54,8,��,4.1,3
2019/8/3,17:00:00,8,��,1.6,28.6,61.2,0,0.35,7,��쓌,3,58
2019/8/3,18:00:00,13,���k��,1.4,25.4,84.1,0,0.14,7,��쓌,3,3
2019/8/3,19:00:00,3,���k��,3.1,21.7,87.7,0,0.02,2,�k��,6.8,44
2019/8/3,20:00:00,2,�k��,2.5,21.8,85.7,0,0,2,�k��,5.2,19
2019/8/3,21:00:00,2,�k��,2,21.8,85.2,0,0,1,�k�k��,3.1,56
2019/8/3,22:00:00,13,���k��,0.8,19.3,95.8,0,0,3,���k��,3.3,10
2019/8/3,23:00:00,12,��,1.2,18.3,98,0,0,12,��,1.6,0
2019/8/3,0:00:00,14,�k��,0.9,17.4,97.7,0,0,12,��,2.5,7
2019/8/4,1:00:00,12,��,0.3,17.2,98.3,0,0,13,���k��,1.9,11
2019/8/4,2:00:00,13,���k��,1.5,17.7,99.3,0,0,13,���k��,2.5,49
2019/8/4,3:00:00,14,�k��,0.9,17.4,99.4,0,0,13,���k��,2.3,28
2019/8/4,4:00:00,13,���k��,1.4,17.8,99.5,0,0,13,���k��,2.5,59
2019/8/4,5:00:00,13,���k��,1.2,17.6,99.3,0,0.01,13,���k��,2.6,35
2019/8/4,6:00:00,14,�k��,0.7,19,93,0,0.12,14,�k��,3.6,40
2019/8/4,7:00:00,16,�É�,0,22.4,86.3,0,0.29,11,���쐼,1.2,16
2019/8/4,8:00:00,5,���쓌,1.7,24.1,81.9,0,0.49,4,��,3.2,58
2019/8/4,9:00:00,4,��,2.6,24.8,78.7,0,0.76,4,��,4.5,49
2019/8/4,10:00:00,5,���쓌,3.2,23.5,79.2,0,0.81,6,�쓌,5.2,59
2019/8/4,11:00:00,5,���쓌,3.7,22.8,79.3,0,0.94,5,���쓌,6.3,59
2019/8/4,12:00:00,5,���쓌,4.6,22.2,78.4,0,0.99,5,���쓌,6.5,21
2019/8/4,13:00:00,5,���쓌,4,21.3,80.9,0,0.97,5,���쓌,7.1,16
2019/8/4,14:00:00,4,��,2.5,21.8,82.5,0,0.82,4,��,4.9,12
2019/8/4,15:00:00,5,���쓌,2.5,20.7,84.3,0,0.71,5,���쓌,4.4,57
2019/8/4,16:00:00,6,�쓌,2,20.8,84.3,0,0.56,7,��쓌,4.2,25
2019/8/4,17:00:00,6,�쓌,2.1,20.3,86.6,0,0.36,8,��,3.8,39
2019/8/4,18:00:00,4,��,2.2,18.9,93.5,0,0.13,6,�쓌,3.3,0
2019/8/4,19:00:00,4,��,1.9,18.5,95.8,0,0.01,4,��,3.1,2
2019/8/4,20:00:00,4,��,2,18.4,97.1,0,0,5,���쓌,3.1,2
2019/8/4,21:00:00,4,��,1.4,18.5,97.8,0,0,4,��,2.7,0
2019/8/4,22:00:00,3,���k��,1.5,18.5,98.1,0,0,3,���k��,2.2,41
2019/8/4,23:00:00,3,���k��,1.2,18.4,99.1,0,0,3,���k��,2.2,55
2019/8/4,0:00:00,3,���k��,1,18.4,99.3,0,0,4,��,2.4,3
2019/8/5,1:00:00,3,���k��,1.3,18.4,99.5,0,0,3,���k��,2.1,32
2019/8/5,2:00:00,4,��,1.2,18.4,99.6,0,0,3,���k��,2.6,41
2019/8/5,3:00:00,4,��,1.3,18.3,99.7,0,0,5,���쓌,2.1,57
2019/8/5,4:00:00,4,��,1.3,18.3,99.8,0,0,4,��,2.2,26
2019/8/5,5:00:00,3,���k��,0.8,18.3,99.9,0,0.01,3,���k��,2.2,19
2019/8/5,6:00:00,16,�É�,0.2,18.4,100,0,0.03,3,���k��,2.1,16
2019/8/5,7:00:00,4,��,1.2,18.7,100,0,0.08,4,��,2.2,35
2019/8/5,8:00:00,3,���k��,1.3,18.9,99.9,0,0.12,2,�k��,2.5,44
2019/8/5,9:00:00,5,���쓌,1.6,19.5,99.4,0,0.2,5,���쓌,2.9,59
2019/8/5,10:00:00,8,��,1,21,93.4,0,0.42,5,���쓌,2.7,8
2019/8/5,11:00:00,7,��쓌,2.2,23,85.3,0,0.71,5,���쓌,4.5,32
2019/8/5,12:00:00,7,��쓌,2.3,23.7,75.7,0,0.89,6,�쓌,4.4,29
2019/8/5,13:00:00,7,��쓌,2.6,22.8,82.2,0,0.74,6,�쓌,4.2,45
2019/8/5,14:00:00,6,�쓌,2.5,23.7,77,0,0.83,6,�쓌,4.4,44
2019/8/5,15:00:00,7,��쓌,2.3,22.8,79.8,0,0.71,6,�쓌,4,34
2019/8/5,16:00:00,8,��,2,22.3,82.7,0,0.54,8,��,4.3,38
2019/8/5,17:00:00,6,�쓌,2.1,21.3,89.4,0,0.35,8,��,3.6,6
2019/8/5,18:00:00,16,�É�,0,20.4,95.1,0,0.12,5,���쓌,2.7,0
2019/8/5,19:00:00,3,���k��,2.3,19.5,98.5,0,0.02,3,���k��,4.2,34
2019/8/5,20:00:00,3,���k��,2.5,19.5,99.3,0,0,3,���k��,4.3,59
2019/8/5,21:00:00,2,�k��,2.5,19.5,99.5,0,0,2,�k��,4.6,43
2019/8/5,22:00:00,15,�k�k��,1.1,19.4,99.6,0,0,1,�k�k��,4,13
2019/8/5,23:00:00,16,�É�,0.2,19.2,99.7,0,0,12,��,1.7,2
2019/8/5,0:00:00,16,�k,0.6,19,99.9,0,0,1,�k�k��,2.1,32
2019/8/6,1:00:00,1,�k�k��,0.5,18.5,100,0,0,1,�k�k��,1.4,48
2019/8/6,2:00:00,16,�É�,0.1,18.3,100,0,0,16,�k,1.7,30
2019/8/6,3:00:00,12,��,0.7,17.5,100,0,0,11,���쐼,1.2,16
2019/8/6,4:00:00,9,��쐼,0.7,15.9,100,0,0,11,���쐼,1.6,25
2019/8/6,5:00:00,1,�k�k��,1.1,17.4,100,0,0.01,1,�k�k��,1.8,47
2019/8/6,6:00:00,14,�k��,0.4,18.6,100,0,0.06,1,�k�k��,1.1,7
2019/8/6,7:00:00,12,��,0.7,20.1,100,0,0.17,11,���쐼,2.3,28
2019/8/6,8:00:00,3,���k��,0.3,21.6,99.6,0,0.34,16,�k,2,35
2019/8/6,9:00:00,5,���쓌,2.3,26.2,83.7,0,0.7,5,���쓌,3.6,52
2019/8/6,10:00:00,5,���쓌,2,26.2,77.1,0,0.84,5,���쓌,4.2,12
2019/8/6,11:00:00,7,��쓌,2.9,24.3,75.3,0,0.86,7,��쓌,4.7,59
2019/8/6,12:00:00,7,��쓌,2.6,23.6,82,0,0.86,7,��쓌,5.4,26
2019/8/6,13:00:00,7,��쓌,2.6,22.9,78.7,0,0.97,7,��쓌,5.3,0
2019/8/6,14:00:00,8,��,2.5,22.4,81.6,0,0.82,7,��쓌,4.9,23
2019/8/6,15:00:00,7,��쓌,2.6,22.1,83.9,0,0.72,7,��쓌,4,59
2019/8/6,16:00:00,6,�쓌,2.4,21.1,87.3,0,0.52,9,��쐼,4.2,13
2019/8/6,17:00:00,6,�쓌,1.9,19.9,92.4,0,0.26,6,�쓌,3.7,22
2019/8/6,18:00:00,3,���k��,1.4,19.6,94.6,0,0.09,3,���k��,2.5,31
2019/8/6,19:00:00,3,���k��,1.6,19,97.1,0,0.02,3,���k��,2.5,59
2019/8/6,20:00:00,4,��,1.5,18.7,98.4,0,0,3,���k��,2.7,15
2019/8/6,21:00:00,4,��,0.9,18.4,99.2,0,0,4,��,2.5,3
2019/8/6,22:00:00,4,��,0.5,18.3,99.7,0,0,3,���k��,1.7,4
2019/8/6,23:00:00,1,�k�k��,1,18.3,99.9,0,0,2,�k��,1.7,58
2019/8/6,0:00:00,2,�k��,0.6,18,100,0,0,2,�k��,2.5,22
2019/8/7,1:00:00,16,�É�,0,17.9,100,0,0,2,�k��,1,10
2019/8/7,2:00:00,16,�É�,0,17.9,100,0,0,9,��쐼,1.2,24
2019/8/7,3:00:00,10,�쐼,0.8,16.9,100,0,0,11,���쐼,1.3,15
2019/8/7,4:00:00,9,��쐼,0.7,16.5,100,0,0,9,��쐼,1.2,55
2019/8/7,5:00:00,2,�k��,0.6,16.9,100,0,0.01,9,��쐼,1.3,22
2019/8/7,6:00:00,16,�É�,0,18.2,100,0,0.05,16,�k,1,39
2019/8/7,7:00:00,16,�É�,0.1,19.2,100,0,0.15,3,���k��,1.1,50
2019/8/7,8:00:00,7,��쓌,0.6,19.3,100,0,0.21,8,��,2.4,46
2019/8/7,9:00:00,7,��쓌,0.7,20.1,98.6,0,0.36,6,�쓌,2.4,40
2019/8/7,10:00:00,5,���쓌,2.1,22.3,84.4,0,0.8,6,�쓌,3.4,58
2019/8/7,11:00:00,6,�쓌,2.3,22.7,82.4,0,0.94,6,�쓌,4.5,5
2019/8/7,12:00:00,6,�쓌,3,22,86.4,0,0.84,6,�쓌,5.1,43
2019/8/7,13:00:00,7,��쓌,2.9,21.2,87.1,0,0.71,6,�쓌,5.8,47
2019/8/7,14:00:00,7,��쓌,2.2,20.4,90.6,0,0.54,6,�쓌,4.8,23
2019/8/7,15:00:00,6,�쓌,2.3,19.7,94.2,0,0.28,8,��,3.8,32
2019/8/7,16:00:00,5,���쓌,2.3,19.3,96,0,0.15,5,���쓌,3.5,57
2019/8/7,17:00:00,5,���쓌,2.1,19,98.7,0,0.1,4,��,3.9,6
2019/8/7,18:00:00,4,��,1.8,18.9,99.4,0,0.04,4,��,3.4,11
2019/8/7,19:00:00,2,�k��,2,19,99.7,0,0.01,4,��,3.4,22
2019/8/7,20:00:00,16,�k,0.9,19.3,99.8,0,0,2,�k��,3,12
2019/8/7,21:00:00,14,�k��,0.8,19.5,99.8,0,0,16,�k,2.5,13
2019/8/7,22:00:00,13,���k��,0.8,19.6,99.8,0,0,14,�k��,1.8,5
2019/8/7,23:00:00,13,���k��,0.5,19.7,99.7,0,0,15,�k�k��,1.6,20
2019/8/7,0:00:00,14,�k��,0.4,19.6,99.7,0,0,13,���k��,1.4,19
2019/8/8,1:00:00,14,�k��,0.9,19.5,99.5,0,0,14,�k��,1.4,54
2019/8/8,2:00:00,13,���k��,0.8,19.4,99.4,0,0,12,��,1.6,26
2019/8/8,3:00:00,15,�k�k��,0.4,19.2,99.4,0,0,11,���쐼,2.7,31
2019/8/8,4:00:00,16,�É�,0.2,19.3,99.4,0,0,12,��,2.2,7
2019/8/8,5:00:00,16,�É�,0.1,19.5,98.9,0,0.01,14,�k��,0.9,34
2019/8/8,6:00:00,13,���k��,0.8,19.6,97.3,0,0.06,12,��,2,14
2019/8/8,7:00:00,12,��,2,20.1,97.2,0,0.1,13,���k��,3,56
2019/8/8,8:00:00,13,���k��,0.7,21.2,92.1,0,0.22,13,���k��,2.8,4
2019/8/8,9:00:00,2,�k��,0.9,23.2,90.5,0,0.33,3,���k��,2.3,55
2019/8/8,10:00:00,5,���쓌,2.1,22.8,88.3,0,0.47,5,���쓌,3.5,48
2019/8/8,11:00:00,5,���쓌,1.8,22.3,89.2,0,0.39,5,���쓌,3.4,0
2019/8/8,12:00:00,7,��쓌,1.8,22.6,93.1,0,0.34,6,�쓌,3.5,8
2019/8/8,13:00:00,8,��,2.2,21.3,93.6,0,0.26,9,��쐼,3.3,4
2019/8/8,14:00:00,7,��쓌,1.9,21.3,95.9,0.5,0.23,7,��쓌,3.3,55
2019/8/8,15:00:00,6,�쓌,0.4,20.6,98.1,4.5,0.12,9,��쐼,2.5,42
2019/8/8,16:00:00,6,�쓌,0.6,20.5,98,1,0.11,7,��쓌,3.4,27
2019/8/8,17:00:00,6,�쓌,0.9,20.3,97.7,0,0.08,7,��쓌,2.3,31
2019/8/8,18:00:00,5,���쓌,1.7,19.8,99,0.5,0.02,5,���쓌,2.5,58
2019/8/8,19:00:00,4,��,1.8,19.6,99.3,0,0,4,��,3.6,0
2019/8/8,20:00:00,4,��,4.8,18.6,99.3,1.5,0,4,��,6.8,55
2019/8/8,21:00:00,4,��,3.9,18,98.9,0.5,0,4,��,8.1,47
2019/8/8,22:00:00,4,��,4.5,17.6,98.9,2,0,5,���쓌,6.6,3
2019/8/8,23:00:00,4,��,3.9,17,99.2,6.5,0,3,���k��,7.1,58
2019/8/8,0:00:00,3,���k��,3.1,16.7,99.5,9,0,3,���k��,6.6,0
2019/8/9,1:00:00,3,���k��,4,16.2,99.5,1.5,0,4,��,8.1,43
2019/8/9,2:00:00,3,���k��,3.5,15.8,99.4,1.5,0,3,���k��,7.6,24
2019/8/9,3:00:00,3,���k��,3.8,15.9,99.6,1,0,3,���k��,6.1,3
2019/8/9,4:00:00,3,���k��,4.1,15.8,99.5,2,0,3,���k��,7.7,50
2019/8/9,5:00:00,3,���k��,2.8,15.3,99.2,4,0,3,���k��,8.6,35
2019/8/9,6:00:00,3,���k��,3.7,15.3,99,4.5,0.02,2,�k��,7.2,33
2019/8/9,7:00:00,3,���k��,4.4,14.5,98.8,2.5,0.04,2,�k��,9.2,22
2019/8/9,8:00:00,2,�k��,5.5,13.8,98.4,4,0.04,2,�k��,9.4,49
2019/8/9,9:00:00,1,�k�k��,3.8,13.8,98.2,5,0.06,1,�k�k��,10.2,43
2019/8/9,10:00:00,14,�k��,2.8,14.5,99,4.5,0.09,16,�k,6,13
2019/8/9,11:00:00,14,�k��,3.4,15,98.7,1,0.1,14,�k��,6.1,55
2019/8/9,12:00:00,15,�k�k��,3,15.7,95.8,0.5,0.23,16,�k,7.3,40
2019/8/9,13:00:00,1,�k�k��,4.2,14.9,95.2,0.5,0.18,16,�k,7.8,3
2019/8/9,14:00:00,14,�k��,2.9,15.4,89.6,0,0.17,1,�k�k��,8.2,5
2019/8/9,15:00:00,14,�k��,3.3,16.3,90.2,0,0.2,14,�k��,5.7,55
2019/8/9,16:00:00,14,�k��,2.5,16.5,87.7,0,0.17,16,�k,6.7,39
2019/8/9,17:00:00,2,�k��,1.4,16.4,92.6,0,0.11,14,�k��,4.3,14
2019/8/9,18:00:00,16,�É�,0.2,16.1,96.6,0,0.04,13,���k��,3.2,11
2019/8/9,19:00:00,13,���k��,0.7,15.9,94.9,0,0.01,16,�k,3,34
2019/8/9,20:00:00,14,�k��,2.1,15.7,96.3,0,0,14,�k��,3.1,52
2019/8/9,21:00:00,14,�k��,2.5,15.8,93.5,0,0,14,�k��,4.6,37
2019/8/9,22:00:00,14,�k��,2.5,15.5,92.5,0,0,14,�k��,4.6,47
2019/8/9,23:00:00,4,��,0.6,14.9,95.2,0,0,14,�k��,4.4,7
2019/8/9,0:00:00,16,�k,0.9,15.2,91.8,0,0,14,�k��,2.8,25
2019/8/10,1:00:00,14,�k��,1,14.8,94.4,0,0,14,�k��,4.3,47
2019/8/10,2:00:00,12,��,0.6,14.9,95.8,0,0,14,�k��,4.1,3
2019/8/10,3:00:00,15,�k�k��,0.7,14.5,98.5,1.5,0,12,��,2,12
2019/8/10,4:00:00,16,�k,0.7,14.5,98.9,0.5,0,16,�k,1.8,22
2019/8/10,5:00:00,4,��,3.2,14.2,98.8,0,0,4,��,5.3,53
2019/8/10,6:00:00,3,���k��,1.7,14.2,98.5,3,0.03,4,��,7.2,10
2019/8/10,7:00:00,4,��,3.2,14.1,98.4,3,0.03,4,��,5.8,16
2019/8/10,8:00:00,4,��,3.7,14.5,97.6,0,0.12,5,���쓌,5.8,47
2019/8/10,9:00:00,4,��,3.5,14.7,96.3,0,0.14,4,��,5.8,31
2019/8/10,10:00:00,4,��,3.3,15.6,91.4,0,0.28,4,��,5.2,54
2019/8/10,11:00:00,4,��,3.2,17.1,89.8,0,0.46,4,��,6.2,28
2019/8/10,12:00:00,4,��,3.3,17.9,85.9,0,0.65,5,���쓌,5.9,20
2019/8/10,13:00:00,4,��,3.4,17.1,87.9,0,0.62,5,���쓌,5.8,7
2019/8/10,14:00:00,4,��,3.1,16.4,87.1,0,0.47,4,��,5,22
2019/8/10,15:00:00,4,��,2.5,15.9,92,0,0.26,5,���쓌,4.8,29
2019/8/10,16:00:00,3,���k��,2.1,15.9,90.7,0,0.18,5,���쓌,4.1,9
2019/8/10,17:00:00,3,���k��,1.9,15.4,90.6,0,0.13,4,��,3.8,32
2019/8/10,18:00:00,4,��,1.4,15.4,91.9,0,0.05,3,���k��,3,2
2019/8/10,19:00:00,1,�k�k��,1.2,14.7,93.8,0,0.01,4,��,2.4,4
2019/8/10,20:00:00,1,�k�k��,0.5,14.7,95.8,0,0,1,�k�k��,1.9,1
2019/8/10,21:00:00,15,�k�k��,0.4,14.5,96.4,0,0,16,�k,1.5,43
2019/8/10,22:00:00,15,�k�k��,0.3,14.4,96.2,0,0,16,�k,1.1,51
2019/8/10,23:00:00,16,�É�,0.1,14.3,96.5,0,0,1,�k�k��,1.5,25
2019/8/10,0:00:00,16,�É�,0.1,14.3,97.2,0,0,1,�k�k��,1.6,18
2019/8/11,1:00:00,16,�É�,0.2,14.2,97.8,0,0,14,�k��,1.1,42
2019/8/11,2:00:00,14,�k��,0.4,14.2,98.2,0,0,14,�k��,1.1,58
2019/8/11,3:00:00,16,�É�,0.2,14.2,97.6,0,0,14,�k��,1.6,8
2019/8/11,4:00:00,14,�k��,1.2,14.1,97.7,0,0,14,�k��,2.5,47
2019/8/11,5:00:00,16,�k,0.5,14.2,98.1,0,0.01,15,�k�k��,1.9,4
2019/8/11,6:00:00,1,�k�k��,0.7,14.9,91.7,0,0.05,2,�k��,1.5,56
2019/8/11,7:00:00,2,�k��,1.2,15.8,88.9,0,0.19,2,�k��,2.1,43
2019/8/11,8:00:00,2,�k��,1,17.1,87.4,0,0.34,2,�k��,2.7,41
2019/8/11,9:00:00,4,��,2,19.9,81.5,0,0.62,5,���쓌,4.5,56
2019/8/11,10:00:00,5,���쓌,2.9,18.6,79.3,0,0.74,6,�쓌,5,33
2019/8/11,11:00:00,5,���쓌,3.3,17.8,78.4,0,0.7,5,���쓌,4.6,56
2019/8/11,12:00:00,5,���쓌,3.7,18.4,75.1,0,0.88,5,���쓌,5.2,55
2019/8/11,13:00:00,5,���쓌,4,18.7,79,0,0.82,5,���쓌,5.5,6
2019/8/11,14:00:00,5,���쓌,3.7,18,77.5,0,0.64,5,���쓌,6,2
2019/8/11,15:00:00,5,���쓌,3,17.3,79.6,0,0.49,4,��,5.6,13
2019/8/11,16:00:00,7,��쓌,2.1,17.1,78.9,0,0.33,6,�쓌,4.5,2
2019/8/11,17:00:00,6,�쓌,0.6,16.8,80.4,0,0.18,6,�쓌,2.5,11
2019/8/11,18:00:00,5,���쓌,0.4,16.5,84.7,0,0.07,7,��쓌,1.6,9
2019/8/11,19:00:00,5,���쓌,0.9,15.6,94.2,0,0.01,4,��,1.1,58
2019/8/11,20:00:00,16,�É�,0,15.4,95.2,0,0,15,�k�k��,1,22
2019/8/11,21:00:00,1,�k�k��,0.4,14.1,97.7,0,0,2,�k��,0.8,59
2019/8/11,22:00:00,16,�É�,0,14.7,97.8,0,0,3,���k��,1,30
2019/8/11,23:00:00,16,�É�,0.1,14.6,97.9,0,0,1,�k�k��,1.1,59
2019/8/11,0:00:00,14,�k��,0.8,14.8,97.7,0,0,15,�k�k��,2.1,48
2019/8/12,1:00:00,12,��,0.5,14.9,98.1,0,0,12,��,1.7,50
2019/8/12,2:00:00,15,�k�k��,0.3,14.9,98.5,0,0,5,���쓌,2.2,31
2019/8/12,3:00:00,16,�k,0.8,15.1,98.5,0,0,2,�k��,2,45
2019/8/12,4:00:00,1,�k�k��,0.4,15.2,98.3,0,0,16,�k,1,6
2019/8/12,5:00:00,3,���k��,1.1,15.3,98.2,0,0.01,1,�k�k��,2.5,47
2019/8/12,6:00:00,2,�k��,0.6,16,97.2,0,0.05,2,�k��,1.7,13
2019/8/12,7:00:00,5,���쓌,1.9,17.1,94.3,0,0.11,6,�쓌,3.4,47
2019/8/12,8:00:00,5,���쓌,1,17.9,91.6,0,0.21,4,��,3.6,19
2019/8/12,9:00:00,5,���쓌,1.5,18.7,89.4,0,0.29,5,���쓌,2.7,44
2019/8/12,10:00:00,8,��,2,19.3,79.8,0,0.49,8,��,4.1,54
2019/8/12,11:00:00,6,�쓌,2.1,20,80.5,0,0.64,5,���쓌,4.2,47
2019/8/12,12:00:00,5,���쓌,2.5,20.2,85.9,0,0.54,5,���쓌,4.4,58
2019/8/12,13:00:00,6,�쓌,2.6,22.4,83.8,0,0.87,5,���쓌,6,18
2019/8/12,14:00:00,9,��쐼,4,21.7,81.3,0,0.55,9,��쐼,7.5,45
2019/8/12,15:00:00,8,��,3.6,20,87.1,0,0.4,8,��,8.1,2
2019/8/12,16:00:00,2,�k��,2.8,19.5,91.9,0,0.13,7,��쓌,5.4,2
2019/8/12,17:00:00,1,�k�k��,2.5,18.2,93.6,0,0.07,3,���k��,5.4,15
2019/8/12,18:00:00,15,�k�k��,0.9,17.8,95.4,0,0.02,1,�k�k��,3.1,10
2019/8/12,19:00:00,2,�k��,0.7,17.6,97.2,0,0,16,�k,2.5,11
2019/8/12,20:00:00,2,�k��,1,17.3,97.9,0,0,2,�k��,1.6,59
2019/8/12,21:00:00,1,�k�k��,1.5,17.2,98.9,0,0,1,�k�k��,2.5,59
2019/8/12,22:00:00,14,�k��,0.6,17.2,99.1,0,0,1,�k�k��,2.5,1
2019/8/12,23:00:00,16,�k,0.3,17.2,98.6,0,0,14,�k��,1.9,41
2019/8/12,0:00:00,14,�k��,0.4,17.3,98.8,0,0,11,���쐼,1.3,23
2019/8/13,1:00:00,13,���k��,1.3,17.3,98.9,0,0,13,���k��,2.3,49
2019/8/13,2:00:00,11,���쐼,1,17.5,97.9,0,0,10,�쐼,2.5,31
2019/8/13,3:00:00,16,�k,1.3,17.4,98.1,0,0,1,�k�k��,4.7,29
2019/8/13,4:00:00,12,��,2.1,16.2,99,0,0,12,��,2.7,58
2019/8/13,5:00:00,10,�쐼,1.2,16.6,98.8,0,0.01,14,�k��,2.9,10
2019/8/13,6:00:00,10,�쐼,1.2,20,94.6,0,0.13,12,��,3.1,8
2019/8/13,7:00:00,15,�k�k��,1.1,23.5,83.1,0,0.34,12,��,5.5,3
2019/8/13,8:00:00,1,�k�k��,1.4,25.6,71.6,0,0.53,15,�k�k��,3.3,31
2019/8/13,9:00:00,4,��,3.4,23.7,76.1,0,0.7,5,���쓌,5.4,31
2019/8/13,10:00:00,4,��,4.3,22.6,77.5,0,0.84,4,��,6.7,54
2019/8/13,11:00:00,5,���쓌,4.6,22.8,75.4,0,0.94,5,���쓌,7.8,1
2019/8/13,12:00:00,6,�쓌,3.5,22.5,75.8,0,0.97,4,��,6.5,4
2019/8/13,13:00:00,6,�쓌,2.4,21.7,78.9,0,0.69,5,���쓌,5.3,23
2019/8/13,14:00:00,6,�쓌,1.7,21.5,81.2,0,0.38,5,���쓌,4.7,40
2019/8/13,15:00:00,5,���쓌,1.9,20.7,80.8,0,0.16,6,�쓌,3.6,44
2019/8/13,16:00:00,6,�쓌,1,20,83.4,0,0.12,6,�쓌,2.9,24
2019/8/13,17:00:00,6,�쓌,0.6,19.7,87.5,0,0.03,6,�쓌,1.9,8
2019/8/13,18:00:00,5,���쓌,2.5,19,87.8,0,0.02,5,���쓌,4.5,55
2019/8/13,19:00:00,6,�쓌,1.8,17.7,96.3,0,0,5,���쓌,4,17
2019/8/13,20:00:00,5,���쓌,1.8,17.4,93.2,0,0,5,���쓌,3.3,18
2019/8/13,21:00:00,7,��쓌,0.7,17.4,92.4,0,0,6,�쓌,2.4,5
2019/8/13,22:00:00,5,���쓌,1.9,17.1,91.1,0,0,5,���쓌,3.6,39
2019/8/13,23:00:00,5,���쓌,2.5,16.7,88.4,0,0,6,�쓌,5,47
2019/8/13,0:00:00,4,��,1.9,16.2,90.6,0,0,5,���쓌,4.2,26
2019/8/14,1:00:00,4,��,1.3,15.9,90.8,0,0,5,���쓌,2.9,45
2019/8/14,2:00:00,4,��,1.7,15.8,92.2,0,0,4,��,2.5,43
2019/8/14,3:00:00,5,���쓌,2.4,15.7,90.8,0,0,4,��,3.4,59
2019/8/14,4:00:00,4,��,1.9,15.5,89.2,0,0,4,��,3.8,2
2019/8/14,5:00:00,4,��,1.6,15.6,91.5,0,0.01,4,��,3.2,57
2019/8/14,6:00:00,4,��,2.4,16.1,89.7,0,0.06,3,���k��,3.8,45
2019/8/14,7:00:00,3,���k��,2.8,16.3,90.2,0,0.09,4,��,4.3,45
2019/8/14,8:00:00,3,���k��,2.4,16.2,89.5,0,0.12,4,��,4.7,7
2019/8/14,9:00:00,3,���k��,2.5,16.7,89.5,0,0.19,4,��,4.3,23
2019/8/14,10:00:00,4,��,2.7,17.7,84.1,0,0.34,4,��,4.5,58
2019/8/14,11:00:00,5,���쓌,3,17.5,81,0,0.42,5,���쓌,5,56
2019/8/14,12:00:00,6,�쓌,2.5,17.9,81.8,0,0.48,4,��,5.6,28
2019/8/14,13:00:00,5,���쓌,2.6,18.3,80.3,0,0.31,5,���쓌,4.7,8
2019/8/14,14:00:00,5,���쓌,3.1,18.3,82,0,0.45,5,���쓌,5.3,21
2019/8/14,15:00:00,5,���쓌,2.8,17.8,82.8,0,0.29,5,���쓌,5.1,0
2019/8/14,16:00:00,5,���쓌,2.2,17.5,82.8,0,0.23,5,���쓌,4,11
2019/8/14,17:00:00,4,��,2.1,17,86.8,0,0.11,5,���쓌,3.5,25
2019/8/14,18:00:00,3,���k��,1.4,16.6,89.9,0,0.03,4,��,3,12
2019/8/14,19:00:00,3,���k��,0.9,16.3,91.7,0,0.01,4,��,2.1,37
2019/8/14,20:00:00,3,���k��,0.6,16.3,93.9,0,0,3,���k��,1.5,39
2019/8/14,21:00:00,16,�k,0.4,16.2,95.4,0,0,3,���k��,1.4,3
2019/8/14,22:00:00,14,�k��,0.8,16,95.3,0,0,14,�k��,1.2,58
2019/8/14,23:00:00,1,�k�k��,1.1,16,96.6,0,0,1,�k�k��,1.5,54
2019/8/14,0:00:00,1,�k�k��,0.5,15.9,97.8,0,0,16,�k,1.7,5
2019/8/15,1:00:00,16,�k,0.8,15.7,98.8,0,0,16,�k,1.9,12
2019/8/15,2:00:00,14,�k��,0.5,15.5,99.1,0,0,16,�k,2.1,30
2019/8/15,3:00:00,14,�k��,0.3,15.4,99.2,0,0,13,���k��,1.7,34
2019/8/15,4:00:00,15,�k�k��,0.3,15.3,99.5,0.5,0,14,�k��,1.6,29
2019/8/15,5:00:00,15,�k�k��,0.4,15.5,99.6,0.5,0,15,�k�k��,1.4,1
2019/8/15,6:00:00,16,�k,0.7,15.7,99.7,0,0.02,15,�k�k��,1.5,52
2019/8/15,7:00:00,16,�k,0.9,15.9,99.6,0.5,0.06,1,�k�k��,2.1,32
2019/8/15,8:00:00,2,�k��,1,16.7,99.1,0,0.14,16,�k,1.9,39
2019/8/15,9:00:00,2,�k��,1.7,17.1,98.7,0.5,0.15,1,�k�k��,2.5,40
2019/8/15,10:00:00,3,���k��,1.9,18,98.7,0,0.21,2,�k��,3.3,47
2019/8/15,11:00:00,3,���k��,2.5,17.7,97.3,0,0.24,2,�k��,4.2,59
2019/8/15,12:00:00,3,���k��,2.7,17.9,98.2,0,0.25,3,���k��,4.2,28
2019/8/15,13:00:00,3,���k��,2.6,18.3,98.3,0,0.27,2,�k��,4.1,10
2019/8/15,14:00:00,3,���k��,2.6,17.6,97.9,0,0.21,3,���k��,4,53
2019/8/15,15:00:00,2,�k��,2.5,17.9,98.3,0.5,0.18,2,�k��,3.8,56
2019/8/15,16:00:00,2,�k��,2.3,17.9,98.8,0.5,0.14,2,�k��,4,38
2019/8/15,17:00:00,1,�k�k��,1.9,17.8,98.9,0.5,0.07,1,�k�k��,3.3,55
2019/8/15,18:00:00,16,�k,0.5,17.8,99.3,1.5,0.02,2,�k��,2.4,2
2019/8/15,19:00:00,16,�k,1.1,17.6,99.5,1,0,16,�k,2.2,19
2019/8/15,20:00:00,14,�k��,1.3,17.8,99.5,1,0,15,�k�k��,2.8,33
2019/8/15,21:00:00,15,�k�k��,1.2,17.9,99.6,1,0,14,�k��,4.1,37
2019/8/15,22:00:00,15,�k�k��,1.2,17.9,99.6,1,0,16,�k,2.7,4
2019/8/15,23:00:00,15,�k�k��,1.5,17.9,99.6,1.5,0,15,�k�k��,2.9,58
2019/8/15,0:00:00,15,�k�k��,1.6,17.9,99.6,1.5,0,14,�k��,3.2,41
2019/8/16,1:00:00,1,�k�k��,1,17.9,99.7,1.5,0,16,�k,2.8,30
2019/8/16,2:00:00,1,�k�k��,2,17.9,99.6,1,0,2,�k��,3.6,52
2019/8/16,3:00:00,1,�k�k��,2.4,17.9,99.7,0.5,0,1,�k�k��,4.6,50
2019/8/16,4:00:00,16,�k,0.9,17.9,99.7,0.5,0,1,�k�k��,3.3,46
2019/8/16,5:00:00,1,�k�k��,2.2,17.9,99.7,0.5,0,1,�k�k��,4.3,24
2019/8/16,6:00:00,16,�k,1.4,18.1,99.8,1,0.01,1,�k�k��,4,12
2019/8/16,7:00:00,1,�k�k��,2.6,18.3,99.7,1,0.04,1,�k�k��,5.2,47
2019/8/16,8:00:00,1,�k�k��,3,18.4,99.5,1.5,0.07,2,�k��,6.7,4
2019/8/16,9:00:00,1,�k�k��,3,18.6,99.3,2,0.09,2,�k��,5.9,51
2019/8/16,10:00:00,1,�k�k��,3,19,98.8,1,0.11,2,�k��,5.8,39
2019/8/16,11:00:00,16,�k,1.1,20,99,2,0.12,16,�k,4.2,32
2019/8/16,12:00:00,1,�k�k��,1.9,20,98.5,0.5,0.17,2,�k��,5.3,16
2019/8/16,13:00:00,2,�k��,3.5,19.9,98.5,1.5,0.18,2,�k��,6.2,52
2019/8/16,14:00:00,1,�k�k��,2.6,19.9,99.2,0.5,0.14,2,�k��,7.3,1
2019/8/16,15:00:00,2,�k��,1.6,19.9,99.5,0,0.07,1,�k�k��,4.2,43
2019/8/16,16:00:00,2,�k��,2.3,19.8,99.5,0,0.08,2,�k��,3.8,33
2019/8/16,17:00:00,2,�k��,2.7,19.5,99.7,0,0.05,2,�k��,5.2,47
2019/8/16,18:00:00,3,���k��,3.1,19.4,99.9,0.5,0.02,3,���k��,6.7,29
2019/8/16,19:00:00,4,��,3,20.3,100,1,0,4,��,5.4,36
2019/8/16,20:00:00,7,��쓌,2.2,20.8,99.9,0,0,7,��쓌,4.5,51
2019/8/16,21:00:00,7,��쓌,2.7,20.6,99.9,0.5,0,7,��쓌,6.5,52
2019/8/16,22:00:00,7,��쓌,4.5,20.4,99.9,3.5,0,7,��쓌,10.8,38
2019/8/16,23:00:00,7,��쓌,3.2,19.7,100,3,0,7,��쓌,9.4,16
2019/8/16,0:00:00,8,��,3.4,19.8,100,3.5,0,7,��쓌,9.3,14
2019/8/17,1:00:00,8,��,3.9,20.3,99.9,2,0,8,��,9.3,44
2019/8/17,2:00:00,9,��쐼,5.1,20.5,99.8,1,0,9,��쐼,9.7,49
2019/8/17,3:00:00,11,���쐼,1.2,20.8,99.7,3,0,9,��쐼,11.3,8
2019/8/17,4:00:00,11,���쐼,0.4,20.3,99.6,0.5,0,12,��,2.5,32
2019/8/17,5:00:00,14,�k��,0.9,20.4,99.8,0,0,14,�k��,1.6,51
2019/8/17,6:00:00,13,���k��,0.9,20.6,99.6,0,0.02,16,�k,2.5,39
2019/8/17,7:00:00,11,���쐼,2.4,23.6,92.9,0,0.26,12,��,3.3,42
2019/8/17,8:00:00,10,�쐼,3.8,27.3,80.1,0,0.53,11,���쐼,6.5,53
2019/8/17,9:00:00,3,���k��,3.2,23.8,85.4,0,0.69,11,���쐼,8.4,17
2019/8/17,10:00:00,11,���쐼,5.2,28.5,70.6,0,0.83,10,�쐼,9.3,57
2019/8/17,11:00:00,10,�쐼,4.1,29,67.4,0,0.92,11,���쐼,10.1,4
2019/8/17,12:00:00,3,���k��,4.2,24.6,79.3,0,0.96,10,�쐼,8,2
2019/8/17,13:00:00,2,�k��,3.8,26.8,78.3,0,0.93,2,�k��,7.3,54
2019/8/17,14:00:00,2,�k��,3.8,24.4,81,0,0.83,2,�k��,8,30
2019/8/17,15:00:00,3,���k��,5.2,23.8,81.4,0,0.68,3,���k��,7.4,50
2019/8/17,16:00:00,3,���k��,3.4,24.6,80.2,0,0.47,3,���k��,7.2,7
2019/8/17,17:00:00,3,���k��,2.3,23.8,84.2,0,0.34,4,��,5.5,11
2019/8/17,18:00:00,3,���k��,1.5,22.5,90.3,0,0.16,5,���쓌,4.1,13